This is the latest recevied weather packets stored in our database for station/object KF6RAL-6. If no packets are shown the sender has not sent any weather packets the latest 10 day(s).
| Time | Temp. | Humidity | Pressure | Rain* | Wind** | Luminosity | Snow |
|---|---|---|---|---|---|---|---|
| 1777071340 | 13.33° C | 45% | 1005.8 hPa | 0 mm | - | - | - |
| 1777070919 | 13.33° C | 48% | 1006 hPa | 0 mm | - | - | - |
| 1777070499 | 13.33° C | 45% | 1006.2 hPa | 0 mm | - | - | - |
| 1777070077 | 13.33° C | 48% | 1006.3 hPa | 0 mm | - | - | - |
| 1777069656 | 13.33° C | 47% | 1006.3 hPa | 0 mm | - | - | - |
| 1777069235 | 13.33° C | 47% | 1006.5 hPa | 0 mm | - | - | - |
| 1777068814 | 13.33° C | 45% | 1006.6 hPa | 0 mm | - | - | - |
| 1777068393 | 13.33° C | 48% | 1006.6 hPa | 0 mm | - | - | - |
| 1777067972 | 13.33° C | 45% | 1006.9 hPa | 0 mm | - | - | - |
| 1777067551 | 12.78° C | 47% | 1007 hPa | 0 mm | - | - | - |
| 1777067130 | 12.78° C | 47% | 1006.7 hPa | 0 mm | - | - | - |
| 1777066709 | 12.78° C | 49% | 1006.7 hPa | 0 mm | - | - | - |
| 1777066288 | 12.78° C | 48% | 1006.8 hPa | 0 mm | - | - | - |
| 1777065867 | 12.78° C | 47% | 1006.9 hPa | 0 mm | - | - | - |
| 1777065446 | 12.78° C | 48% | 1006.8 hPa | 0 mm | - | - | - |
| 1777065025 | 12.78° C | 51% | 1007.1 hPa | 0 mm | - | - | - |
| 1777064604 | 12.22° C | 49% | 1007.4 hPa | 0 mm | - | - | - |
| 1777064183 | 12.78° C | 49% | 1007.2 hPa | 0 mm | - | - | - |
| 1777063764 | 12.22° C | 52% | 1007.6 hPa | 0 mm | - | - | - |
| 1777063341 | 12.22° C | 50% | 1007.8 hPa | 0 mm | - | - | - |
| 1777062920 | 12.22° C | 50% | 1007.8 hPa | 0 mm | - | - | - |
| 1777062078 | 12.22° C | 51% | 1008.2 hPa | 0 mm | - | - | - |
| 1777061657 | 12.22° C | 49% | 1008.3 hPa | 0 mm | - | - | - |
| 1777061236 | 11.67° C | 50% | 1008.4 hPa | 0 mm | - | - | - |
| 1777060815 | 11.67° C | 51% | 1008.5 hPa | 0 mm | - | - | - |
* Rain latest hour (hover to see other rain measurements)
** Current wind speed in m/s (hover to see current wind gust speed)